Cloquet, MN

6:57 AM CST on December 15, 2019 (GMT -0600)
Cloquet Carlton County

Weather History for KCOQ - October, 2019

Change the Weather History Date:

Tuesday, October 1, 2019

  Actual Average Record
Temperature  
Mean Temperature 50 °F -  
Max Temperature 55 °F 56 °F 78 °F (2005)
Min Temperature 44 °F 37 °F 26 °F (2003)
Degree Days  
Heating Degree Days 16    
Moisture  
Dew Point 41 °F    
Average Humidity 76    
Maximum Humidity 100    
Minimum Humidity 54    
Precipitation  
Precipitation 0.00 in - - ()
Sea Level Pressure  
Sea Level Pressure 30.03 in    
Wind  
Wind Speed 8 mph ()    
Max Wind Speed 16 mph    
Max Gust Speed 25 mph    
Visibility 9.4 miles    
Events Rain    
Averages and records for this station are not official NWS values.
T = Trace of Precipitation, MM = Missing Value Source: Averaged Metar Reports

Daily Weather History Graph

Daily Weather History Graph

Search for Another Location

Airport or City:

Astronomy

Oct. 01, 2019 Rise Set
Actual Time 7:08 AM CDT 6:50 PM CDT
Civil Twilight 6:38 AM CDT 7:20 PM CDT
Nautical Twilight 6:03 AM CDT 7:55 PM CDT
Astronomical Twilight 5:27 AM CDT 8:31 PM CDT
Moon 10:35 AM CDT (10/1) 8:51 PM CDT (10/1)
Length of Visible Light 12h 42m
Length of Day
11h 41m
Waxing Crescent, 12% of the Moon is Illuminated
Oct 1
Waxing Crescent
Oct 5
First Quarter
Oct 13
Full
Oct 21
Last Quarter
Oct 27
New

Hourly Weather History & Observations

Time (CDT) Temp. Windchill Dew Point Humidity Pressure Visibility Wind Dir Wind Speed Gust Speed Precip Events Conditions
12:15 AM 51.8 °F - 51.8 °F 100% 29.86 in 10.0 mi NW 11.5 mph 25.3 mph N/A   Overcast
12:35 AM 51.8 °F - 48.2 °F 88% 29.87 in 7.0 mi WNW 12.7 mph 19.6 mph N/A   Overcast
12:55 AM 51.8 °F - 48.2 °F 88% 29.89 in 4.0 mi WNW 13.8 mph 18.4 mph N/A   Overcast
1:15 AM 51.8 °F - 48.2 °F 88% 29.89 in 3.0 mi WNW 10.4 mph 18.4 mph N/A   Overcast
1:35 AM 50.0 °F - 48.2 °F 94% 29.90 in 3.0 mi WNW 9.2 mph - N/A   Overcast
1:55 AM 50.0 °F - 48.2 °F 94% 29.90 in 7.0 mi NNW 4.6 mph - N/A   Overcast
2:15 AM 48.2 °F - 46.4 °F 93% 29.90 in 10.0 mi NW 9.2 mph 17.3 mph N/A   Mostly Cloudy
2:36 AM 48.2 °F - 46.4 °F 93% 29.89 in 10.0 mi NW 10.4 mph 18.4 mph N/A   Overcast
2:56 AM 48.2 °F - 46.4 °F 93% 29.92 in 7.0 mi NW 6.9 mph - N/A   Overcast
3:15 AM 48.2 °F - 46.4 °F 93% 29.93 in 4.0 mi WNW 10.4 mph - N/A   Overcast
3:35 AM 48.2 °F - 46.4 °F 93% 29.92 in - NW 8.1 mph - N/A   Overcast
3:57 AM 48.2 °F - 46.4 °F 93% 29.92 in 10.0 mi North - - N/A   Overcast
4:15 AM 46.4 °F 41.9 °F 44.6 °F 93% 29.96 in 10.0 mi WNW 9.2 mph 18.4 mph N/A   Overcast
4:35 AM 46.4 °F 40.1 °F 44.6 °F 93% 30.00 in 10.0 mi NW 15.0 mph 23.0 mph N/A   Mostly Cloudy
4:36 AM 46.4 °F 39.8 °F 44.6 °F 93% 30.00 in 10.0 mi NW 16.1 mph 23.0 mph N/A   Mostly Cloudy
4:55 AM 46.4 °F 45.2 °F 44.6 °F 93% 30.00 in 4.0 mi NW 3.5 mph - N/A   Overcast
4:56 AM 46.4 °F 45.2 °F 44.6 °F 93% 30.00 in 5.0 mi NW 3.5 mph - N/A   Overcast
5:15 AM 46.4 °F 44.3 °F 44.6 °F 93% 29.98 in 5.0 mi NNW 4.6 mph - N/A   Overcast
5:35 AM 46.4 °F 44.3 °F 44.6 °F 93% 30.01 in 5.0 mi WNW 4.6 mph - N/A   Overcast
5:36 AM 46.4 °F 43.5 °F 44.6 °F 93% 30.01 in 5.0 mi West 5.8 mph - N/A   Overcast
5:55 AM 46.4 °F 43.5 °F 44.6 °F 93% 30.02 in 10.0 mi West 5.8 mph - N/A   Overcast
5:56 AM 46.4 °F 43.5 °F 44.6 °F 93% 30.02 in 10.0 mi West 5.8 mph - N/A   Mostly Cloudy
6:15 AM 46.4 °F 43.5 °F 44.6 °F 93% 29.99 in 10.0 mi NW 5.8 mph - N/A Rain Light Rain
6:16 AM 46.4 °F 42.9 °F 44.6 °F 93% 29.98 in 10.0 mi NW 6.9 mph - N/A Rain Light Rain
6:35 AM 46.4 °F 42.9 °F 44.6 °F 93% 29.99 in 10.0 mi WNW 6.9 mph - N/A   Mostly Cloudy
6:36 AM 46.4 °F 42.9 °F 44.6 °F 93% 29.99 in 10.0 mi WNW 6.9 mph - N/A   Mostly Cloudy
6:55 AM 46.4 °F 42.9 °F 44.6 °F 93% 30.00 in 10.0 mi WNW 6.9 mph - N/A   Overcast
7:15 AM 46.4 °F 41.9 °F 42.8 °F 87% 30.00 in 10.0 mi WNW 9.2 mph - N/A   Overcast
7:35 AM 46.4 °F 41.9 °F 42.8 °F 87% 29.99 in 10.0 mi NW 9.2 mph - N/A   Overcast
7:55 AM 46.4 °F 42.4 °F 42.8 °F 87% 29.99 in 10.0 mi NNW 8.1 mph - N/A   Overcast
8:15 AM 46.4 °F 44.3 °F 42.8 °F 87% 30.00 in 7.0 mi NW 4.6 mph - N/A   Overcast
8:35 AM 46.4 °F 40.7 °F 42.8 °F 87% 29.98 in 10.0 mi NNW 12.7 mph 18.4 mph N/A   Mostly Cloudy
8:36 AM 46.4 °F 40.7 °F 42.8 °F 87% 29.98 in 10.0 mi NNW 12.7 mph 18.4 mph N/A   Mostly Cloudy
8:55 AM 46.4 °F 41.5 °F 41.0 °F 81% 30.01 in 10.0 mi NW 10.4 mph - N/A   Mostly Cloudy
9:15 AM 46.4 °F 43.5 °F 42.8 °F 87% 30.04 in 10.0 mi NW 5.8 mph - N/A   Overcast
9:35 AM 46.4 °F 44.3 °F 41.0 °F 81% 30.04 in 10.0 mi NW 4.6 mph - N/A   Overcast
9:36 AM 46.4 °F 44.3 °F 41.0 °F 81% 30.03 in 10.0 mi NW 4.6 mph - N/A   Overcast
9:55 AM 46.4 °F 43.5 °F 41.0 °F 81% 30.01 in 10.0 mi NNW 5.8 mph - N/A   Mostly Cloudy
9:56 AM 46.4 °F 42.9 °F 41.0 °F 81% 30.02 in 10.0 mi NNW 6.9 mph - N/A   Mostly Cloudy
10:15 AM 46.4 °F 42.9 °F 41.0 °F 81% 30.06 in 10.0 mi WNW 6.9 mph - N/A   Mostly Cloudy
10:16 AM 46.4 °F 41.9 °F 41.0 °F 81% 30.06 in 10.0 mi West 9.2 mph - N/A   Mostly Cloudy
10:35 AM 46.4 °F 42.4 °F 41.0 °F 81% 30.05 in 10.0 mi NW 8.1 mph - N/A   Mostly Cloudy
10:55 AM 46.4 °F 43.5 °F 41.0 °F 81% 30.06 in 10.0 mi WNW 5.8 mph - N/A   Mostly Cloudy
10:56 AM 46.4 °F 44.3 °F 41.0 °F 81% 30.06 in 10.0 mi WNW 4.6 mph - N/A   Mostly Cloudy
11:15 AM 48.2 °F - 42.8 °F 82% 30.06 in 10.0 mi NW 6.9 mph - N/A Rain Light Rain
11:35 AM 48.2 °F - 41.0 °F 76% 30.05 in 10.0 mi North 6.9 mph - N/A   Mostly Cloudy
11:55 AM 48.2 °F - 41.0 °F 76% 30.06 in 10.0 mi North 4.6 mph - N/A   Mostly Cloudy
11:56 AM 48.2 °F - 41.0 °F 76% 30.06 in 10.0 mi North 5.8 mph - N/A   Mostly Cloudy
12:15 PM 50.0 °F - 41.0 °F 71% 30.06 in 10.0 mi NW 5.8 mph - N/A   Scattered Clouds
12:16 PM 50.0 °F - 41.0 °F 71% 30.06 in 10.0 mi NW 4.6 mph - N/A   Scattered Clouds
12:35 PM 51.8 °F - 39.2 °F 62% 30.07 in 10.0 mi NNW 4.6 mph - N/A   Scattered Clouds
12:36 PM 50.0 °F - 39.2 °F 66% 30.07 in 10.0 mi NNW 5.8 mph - N/A   Scattered Clouds
12:55 PM 51.8 °F - 41.0 °F 67% 30.08 in 10.0 mi Calm Calm - N/A   Scattered Clouds
1:15 PM 51.8 °F - 39.2 °F 62% 30.07 in 10.0 mi NNW 8.1 mph - N/A   Scattered Clouds
1:35 PM 53.6 °F - 39.2 °F 58% 30.06 in 10.0 mi NNW 5.8 mph - N/A   Scattered Clouds
1:36 PM 53.6 °F - 39.2 °F 58% 30.06 in 10.0 mi NNW 4.6 mph - N/A   Scattered Clouds
1:55 PM 53.6 °F - 41.0 °F 62% 30.06 in 10.0 mi NNW 8.1 mph - N/A   Scattered Clouds
2:15 PM 53.6 °F - 39.2 °F 58% 30.05 in 10.0 mi NNW 6.9 mph - N/A   Clear
2:35 PM 53.6 °F - 39.2 °F 58% 30.05 in 10.0 mi NNW 9.2 mph - N/A   Clear
2:55 PM 55.4 °F - 41.0 °F 58% 30.04 in 10.0 mi North 6.9 mph - N/A   Clear
3:15 PM 53.6 °F - 41.0 °F 62% 30.04 in 10.0 mi North 5.8 mph - N/A   Clear
3:16 PM 53.6 °F - 41.0 °F 62% 30.04 in 10.0 mi North 5.8 mph - N/A   Clear
3:35 PM 55.4 °F - 39.2 °F 54% 30.04 in 10.0 mi NNW 10.4 mph - N/A   Clear
3:36 PM 55.4 °F - 39.2 °F 54% 30.04 in 10.0 mi NNW 9.2 mph - N/A   Clear
3:55 PM 55.4 °F - 39.2 °F 54% 30.04 in 10.0 mi North 6.9 mph - N/A   Clear
3:56 PM 55.4 °F - 39.2 °F 54% 30.04 in 10.0 mi NNW 6.9 mph - N/A   Clear
4:15 PM 55.4 °F - 39.2 °F 54% 30.04 in 10.0 mi NNW 6.9 mph - N/A   Clear
4:35 PM 55.4 °F - 39.2 °F 54% 30.05 in 10.0 mi NNW 5.8 mph - N/A   Clear
4:36 PM 55.4 °F - 39.2 °F 54% 30.05 in 10.0 mi NNW 5.8 mph - N/A   Clear
4:55 PM 55.4 °F - 41.0 °F 58% 30.05 in 10.0 mi North 6.9 mph - N/A   Clear
4:56 PM 55.4 °F - 41.0 °F 58% 30.05 in 10.0 mi North 8.1 mph - N/A   Clear
5:15 PM 53.6 °F - 39.2 °F 58% 30.05 in 10.0 mi North 6.9 mph - N/A   Clear
5:16 PM 53.6 °F - 39.2 °F 58% 30.05 in 10.0 mi North 6.9 mph - N/A   Clear
5:35 PM 51.8 °F - 39.2 °F 62% 30.05 in 10.0 mi North 9.2 mph 18.4 mph N/A   Clear
5:36 PM 51.8 °F - 39.2 °F 62% 30.05 in 10.0 mi North 8.1 mph 18.4 mph N/A   Clear
5:55 PM 51.8 °F - 39.2 °F 62% 30.07 in 10.0 mi North 5.8 mph - N/A   Clear
5:56 PM 51.8 °F - 39.2 °F 62% 30.07 in 10.0 mi North 5.8 mph - N/A   Clear
6:15 PM 50.0 °F - 39.2 °F 66% 30.07 in 10.0 mi North 6.9 mph - N/A   Clear
6:35 PM 48.2 °F - 39.2 °F 71% 30.07 in 10.0 mi NNW 10.4 mph 17.3 mph N/A   Clear
6:36 PM 48.2 °F - 39.2 °F 71% 30.07 in 10.0 mi North 10.4 mph 17.3 mph N/A   Clear
6:55 PM 48.2 °F - 39.2 °F 71% 30.07 in 10.0 mi North 8.1 mph - N/A   Clear
7:15 PM 48.2 °F - 39.2 °F 71% 30.07 in 10.0 mi North 6.9 mph - N/A   Clear
7:16 PM 48.2 °F - 39.2 °F 71% 30.08 in 10.0 mi North 6.9 mph - N/A   Clear
7:35 PM 46.4 °F 41.5 °F 37.4 °F 71% 30.08 in 10.0 mi North 10.4 mph 17.3 mph N/A   Clear
7:55 PM 46.4 °F 41.9 °F 37.4 °F 71% 30.08 in 10.0 mi North 9.2 mph - N/A   Clear
8:35 PM 46.4 °F 41.5 °F 37.4 °F 71% 30.07 in 10.0 mi North 10.4 mph 18.4 mph N/A   Clear
8:36 PM 46.4 °F 41.1 °F 37.4 °F 71% 30.07 in 10.0 mi North 11.5 mph 18.4 mph N/A   Clear
8:55 PM 46.4 °F 41.1 °F 37.4 °F 71% 30.06 in 10.0 mi North 11.5 mph 17.3 mph N/A   Clear
8:56 PM 46.4 °F 41.5 °F 37.4 °F 71% 30.07 in 10.0 mi North 10.4 mph 17.3 mph N/A   Clear
9:15 PM 44.6 °F 39.7 °F 37.4 °F 76% 30.07 in 10.0 mi NNE 9.2 mph - N/A   Clear
9:16 PM 44.6 °F 39.7 °F 37.4 °F 76% 30.07 in 10.0 mi North 9.2 mph - N/A   Clear
9:35 PM 44.6 °F 40.7 °F 37.4 °F 76% 30.08 in 10.0 mi North 6.9 mph - N/A   Clear
9:55 PM 46.4 °F 43.5 °F 37.4 °F 71% 30.09 in 10.0 mi North 5.8 mph - N/A   Clear
9:56 PM 46.4 °F 44.3 °F 37.4 °F 71% 30.09 in 10.0 mi North 4.6 mph - N/A   Clear
10:15 PM 44.6 °F 40.7 °F 37.4 °F 76% 30.09 in 10.0 mi North 6.9 mph - N/A   Clear
10:35 PM 44.6 °F 42.2 °F 37.4 °F 76% 30.09 in 10.0 mi NNE 4.6 mph - N/A   Clear
10:36 PM 44.6 °F 42.2 °F 37.4 °F 76% 30.09 in 10.0 mi North 4.6 mph - N/A   Clear
10:55 PM 44.6 °F 42.2 °F 37.4 °F 76% 30.10 in 10.0 mi North 4.6 mph - N/A   Mostly Cloudy
10:56 PM 44.6 °F 41.4 °F 37.4 °F 76% 30.10 in 10.0 mi North 5.8 mph - N/A   Mostly Cloudy
11:15 PM 44.6 °F 42.2 °F 37.4 °F 76% 30.10 in 10.0 mi North 4.6 mph - N/A   Scattered Clouds
11:35 PM 44.6 °F 43.1 °F 37.4 °F 76% 30.11 in 10.0 mi North 3.5 mph - N/A   Scattered Clouds
11:55 PM 44.6 °F 43.1 °F 37.4 °F 76% 30.11 in 10.0 mi North 3.5 mph - N/A   Mostly Cloudy